Location: Bruderhein
(53.8035°N, 112.9265°W)
Time: 07:22:11
(UTC+00:00)

RS-15 - Pass Details

Date: 04 April 2023
Orbit: 1885 x 2159 km, 64.8° (Epoch: 29 May)

Event Time Altitude Azimuth Distance (km) Brightness Sun altitude
Rises 05:30:11 0° 308° (NW) 5,672 11.7 -25.1°
Reaches altitude 10° 05:33:43 10° 311° (NW) 4,649 11.0 -25.4°
Maximum altitude 05:45:56 75° 38° (NE) 2,130 8.1 -26.3°
Enters shadow 05:52:11 34° 117° (ESE) 2,980 8.5 -26.8°
